Lid_Strength_Index
4 4 4 4 4 4 4 4 4 4 4 4 4 4 4 3 3 5 8 4 3 -1 -1 1 3 5 8 7 4 4 11 13 12 12 11 7 8 5 4 6 5 4 4 3 2
3 4 4 4 4 4 4 4 4 4 4 4 4 4 4 3 6 7 3 2 -0 -2 6 5 5 8 8 7 7 7 10 11 8 8 9 8 7 7 7 7 7 6 3 2 2
3 3 4 4 4 3 4 3 4 4 4 4 4 3 3 3 7 7 -2 -0 -2 -1 6 4 5 7 6 7 7 7 10 8 8 7 7 8 7 5 7 8 6 6 5 3 3
3 3 4 4 4 4 4 4 4 4 4 4 4 3 3 5 9 5 -2 -2 -2 1 7 7 5 6 8 8 6 8 7 7 7 6 7 8 6 7 6 6 4 4 4 3 4
3 3 4 4 4 4 4 4 4 4 4 4 4 3 5 9 8 3 -1 -2 1 5 7 6 5 5 9 7 6 8 8 7 6 7 7 6 7 7 7 4 3 3 3 4 3
3 3 4 4 4 4 4 4 4 4 4 4 3 3 6 8 3 -1 -0 2 5 6 7 5 4 6 8 7 8 7 7 7 7 7 7 8 8 7 6 4 4 4 4 4 4
4 3 4 4 4 4 4 4 4 4 4 4 3 4 8 8 1 -0 2 3 4 6 7 7 6 6 7 8 6 7 9 8 8 7 8 7 10 10 6 5 5 5 4 4 3
3 3 4 4 5 5 5 5 5 4 4 3 3 4 7 5 3 3 2 3 4 5 5 6 6 7 6 5 7 9 9 12 9 8 8 8 13 8 6 6 6 5 5 4 4
4 4 4 4 5 5 5 4 4 3 3 2 4 5 6 1 3 2 2 4 5 5 5 6 7 7 6 9 10 10 13 13 12 8 9 10 12 8 6 6 6 6 5 5 4
4 4 4 4 4 5 5 3 2 2 2 2 3 6 5 5 4 3 3 4 6 7 7 8 7 8 7 9 12 13 13 12 13 10 9 10 11 9 7 7 6 6 5 5 4
4 4 4 4 4 5 5 4 5 5 4 6 5 6 5 3 3 5 3 4 5 6 8 7 8 9 9 8 8 9 11 13 11 9 10 11 11 10 8 7 7 6 6 5 4
4 4 4 5 5 5 5 5 5 5 7 5 5 4 3 3 6 5 3 5 6 8 7 7 9 8 8 9 9 9 11 12 11 9 9 11 11 9 8 8 7 6 6 5 4
4 4 4 5 5 5 5 5 4 4 6 6 4 4 4 3 6 6 4 5 6 8 8 8 8 7 8 9 9 9 10 12 11 10 9 10 13 11 9 8 7 6 5 4 4
4 4 5 5 6 5 5 4 3 3 8 7 6 4 5 5 6 4 4 5 7 8 8 7 7 8 9 9 8 10 8 10 10 11 14 10 17 12 11 10 8 7 5 5 4
4 4 5 6 6 5 5 3 4 4 13 7 6 3 5 5 5 5 4 5 7 7 7 8 8 8 8 9 7 10 8 9 10 12 13 13 14 12 10 12 10 7 6 5 4
4 5 5 6 6 4 3 4 4 8 13 8 6 7 6 6 6 5 5 4 5 7 7 8 6 7 6 7 7 8 9 10 10 12 16 14 14 14 13 11 9 8 6 5 4
5 5 6 5 5 4 4 3 8 12 8 9 9 8 7 8 7 6 7 7 8 10 9 8 8 7 7 9 8 9 10 15 16 16 17 12 15 13 9 8 7 8 6 5 4
6 6 6 5 4 4 3 6 11 9 9 8 8 7 8 7 8 8 8 8 8 8 9 10 11 9 7 9 10 10 9 13 18 19 16 13 16 11 7 6 6 6 6 5 4
6 5 5 4 5 4 4 9 10 9 8 9 8 9 9 8 7 7 8 8 8 8 10 10 10 6 7 7 8 11 12 9 13 13 16 14 12 8 7 7 7 6 6 6 5
4 4 5 4 4 4 6 10 8 6 7 7 10 9 10 9 9 9 9 7 8 7 7 8 11 7 7 6 7 9 7 13 12 17 18 16 14 12 10 9 8 7 7 5 4
4 5 5 3 4 5 8 8 7 5 5 7 8 8 9 9 9 10 9 7 6 7 6 7 9 9 8 8 10 9 10 10 10 12 16 17 15 10 10 9 8 7 6 5 5
7 6 4 5 6 9 8 7 7 6 6 6 6 7 8 8 9 9 9 8 5 6 8 7 8 11 9 8 7 9 9 9 12 13 13 14 13 8 9 8 7 7 6 5 4
8 6 3 4 8 8 9 8 6 6 7 7 7 6 6 8 10 9 8 6 5 6 8 7 9 12 11 9 7 10 10 9 9 9 13 13 11 8 8 8 7 7 6 5 4
8 8 5 5 7 7 8 7 8 7 8 7 7 6 7 9 8 9 8 6 5 6 6 5 8 10 12 11 9 11 11 10 9 11 11 11 10 11 9 9 8 7 6 6 5
8 9 7 8 7 7 7 9 9 9 7 6 7 7 8 10 9 9 7 7 6 5 6 7 10 10 9 9 9 10 11 11 11 12 12 11 12 10 9 8 8 7 6 6 5
7 7 5 6 7 7 9 8 9 8 7 7 7 7 7 8 8 9 7 7 7 6 7 7 10 10 11 10 10 11 11 11 11 11 12 12 12 8 7 7 7 7 7 7 6
7 6 5 8 7 8 8 8 7 7 7 6 6 6 7 6 5 6 5 6 6 7 8 9 9 11 13 11 12 13 11 11 11 10 10 13 10 8 9 8 8 7 7 7 6